Regional Weather Roundup
Issued by NWS Spokane, WA

Home | Current Version | Previous Version | Text Only | Print | Product List | Glossary On
Versions: 1 2 3 4 5 6 7 8 9 10 11 12 13 14 15 16 17 18 19 20 21 22 23 24 25 26 27 28 29 30 31 32 33 34 35 36 37 38 39 40 41 42 43 44 45 46 47 48 49 50
000
NZUS01 KOTX 230710
RWROTX
EASTERN WASHINGTON/NORTHERN IDAHO ROUNDUP
NATIONAL WEATHER SERVICE, SPOKANE WA
1200 AM PDT WED APR 23 2014

Note: "fair" indicated few or no clouds below 12,000 feet with no
significant weather and/or obstructions to visibility.

...NORTHEAST WASHINGTON AND NORTHERN IDAHO PANHANDLE...

CITY           SKY/WX    TMP DP  RH WIND       PRES   REMARKS
SPOKANE INTL   CLEAR     36  25  64 SW8       29.81R
SPOKANE DOWNTO CLEAR     35  31  85 CALM      29.82R
COEUR D ALENE  PTCLDY    36  30  80 CALM      29.81R
DEER PARK      CLEAR     28  27  96 CALM      29.80R
SANDPOINT      PTCLDY    34  34 100 W3        29.78R

...SOUTHEAST WASHINGTON AND SOUTHERN IDAHO PANHANDLE...

CITY           SKY/WX    TMP DP  RH WIND       PRES   REMARKS
WALLA WALLA    CLEAR     45  33  63 S13       29.93S
PULLMAN/MOSCOW CLEAR     37  30  75 SW6       29.88R
LEWISTON       PTCLDY    45  29  53 VRB3      29.89R

...COLUMBIA BASIN...

CITY           SKY/WX    TMP DP  RH WIND       PRES   REMARKS
EPHRATA        MOCLDY    40  30  67 W7        29.83R
MOSES LAKE     PTCLDY    44  30  57 SW7       29.84S
TRI CITIES     PTCLDY    48  35  60 SW16      29.91R
HERMISTON      MOCLDY    41  35  79 S7        29.93S
PENDLETON      CLEAR     38  31  76 S7        29.92S

...EAST SLOPES CASCADES...

CITY           SKY/WX    TMP DP  RH WIND       PRES   REMARKS
THE DALLES     CLOUDY    44  39  82 S6        29.94S
YAKIMA         MOCLDY    46  33  60 W5        29.85S
ELLENSBURG     PTCLDY    37  31  78 SE9       29.84S
WENATCHEE      PTCLDY    44  27  51 CALM      29.83R
OMAK           PTCLDY    34  25  69 W3        29.79S

...SOUTHERN BRITISH COLUMBIA...

CITY           SKY/WX    TMP DP  RH WIND       PRES   REMARKS
PENTICTON      MOCLDY    37  32  81 CALM      29.79R
CRANBROOK      PTCLDY    41  28  60 S13G21    29.61

...WESTERN MONTANA...

CITY           SKY/WX    TMP DP  RH WIND       PRES   REMARKS
MISSOULA       CLOUDY    40  31  70 W8        29.78S

...NEIGHBORING CITIES...

CITY           SKY/WX    TMP DP  RH WIND       PRES   REMARKS
SEATTLE        CLOUDY    44  42  93 S9        29.88S
CALGARY        LGT RAIN  43  39  87 NE5       29.40F



USA.gov is the U.S. government's official web portal to all federal, state and local government web resources and services.